Preview of NWS' New Version of Forecast
This preview is not operational and should not be used for support decisions.

Regional Weather Roundup (RWR)

Issued by National Weather Service (NWS)

                            
000
ASUS45 KABQ 182101
RWRNM 
NEW MEXICO REGIONAL WEATHER ROUNDUP
NATIONAL WEATHER SERVICE ALBUQUERQUE NM
300 PM MDT TUE JUN 18 2019

NOTE: "FAIR" MEANS FEW OR NO CLOUDS BELOW 12,000 FEET AGL WITH NO
       SIGNIFICANT WEATHER OR OBSTRUCTIONS TO VISION.

      THIS PRODUCT IS RELEASED AS TWO VERSIONS.  ONE VERSION NEAR
      THE TOP OF THE HOUR CONTAINING PRELIMINARY DATA FROM ALBUQUERQUE
      AND OTHER STATIONS.  A FINAL VERSION WITH ADDITIONAL DATA IS 
      ISSUED ABOUT 10 MINUTES AFTER THE HOUR.
 
NMZ501-503-504-510>518-182200-
NORTHWEST PLATEAU/NORTHCENTRAL MOUNTAINS
  
CITY           SKY/WX    TMP DP  RH WIND       PRES   REMARKS
FARMINGTON     FAIR      84  33  16 W17G28    30.06F                  
LOS ALAMOS       N/A     77  27  15 SW10G21   30.17F                  
SANTA FE       FAIR      83  29  14 W22G31    30.11F                  
TAOS           FAIR      75  40  28 SW20G26   30.17F                  
ANGEL FIRE       N/A     64  39  40 W9        30.24F                  

$$
NMZ402-403-502-505>509-182200-
WESTCENTRAL MOUNTAINS/SOUTHWEST MOUNTAINS
  
CITY           SKY/WX    TMP DP  RH WIND       PRES   REMARKS
GALLUP         FAIR      82  25  12 SW10G24   30.15F                  
GRANTS         FAIR      82  25  12 W15G33    30.16F                  
SILVER CITY    FAIR      89  31  13 W14G20    30.10F                  

$$
NMZ407-409-411-412-182200-
SOUTHERN DESERTS
  
CITY           SKY/WX    TMP DP  RH WIND       PRES   REMARKS
DEMING         FAIR      93  34  12 W16G22    30.01F                  
LAS CRUCES     FAIR      94  32  11 W15G24    30.03F                  
ALAMOGORDO     FAIR      91  32  12 W9        30.00F                  
T OR C         FAIR      94  24   8 SE9G24    30.00F                  

$$
NMZ519>523-182200-
CENTRAL VALLEYS/CENTRAL HIGHLANDS
  
CITY           SKY/WX    TMP DP  RH WIND       PRES   REMARKS
ALBUQUERQUE    FAIR      87  30  13 W20       30.04F                  
DOUBLE EAGLE   PTSUNNY   88  28  11 SW13G29   30.08F                  
MORIARTY ARPT  FAIR      87  26  11 W17G24    30.12F                  
CLINES CORNERS FAIR      79  29  16 W21G33    30.17F                  
BELEN          FAIR      86  34  15 SE10G16   30.05F                  
SOCORRO        FAIR      85  28  13 S13G38    30.02F                  

$$
NMZ524>526-539-540-182200-
SOUTHCENTRAL MOUNTAINS
  
CITY           SKY/WX    TMP DP  RH WIND       PRES   REMARKS
RUIDOSO        FAIR      82  23  11 W21       30.18F                  

$$
NMZ527>531-182200-
NORTHEAST HIGHLANDS/NORTHEAST PLAINS
  
CITY           SKY/WX    TMP DP  RH WIND       PRES   REMARKS
LAS VEGAS      FAIR      80  30  16 SW23G32   30.12F                  
RATON          FAIR      84  36  18 W13G23    30.04F                  
CLAYTON          N/A    N/A N/A N/A MISG      29.99F                  

$$
NMZ532>537-182200-
EASTCENTRAL PLAINS
  
CITY           SKY/WX    TMP DP  RH WIND       PRES   REMARKS
SANTA ROSA     FAIR      91  35  14 W16G28    29.97F                  
TUCUMCARI      FAIR      95  41  15 W13       29.90F                  
CANNON AFB     NOT AVBL                                               
CLOVIS AIRPORT FAIR      86  57  37 VRB3      29.99F                  

$$
NMZ028-029-538-182200-
SOUTHEAST PLAINS
  
CITY           SKY/WX    TMP DP  RH WIND       PRES   REMARKS
ROSWELL        FAIR      93  51  23 E9        29.93F                  
ARTESIA        FAIR      91  57  31 SE10G17   29.93F                  
CARLSBAD       FAIR      94  53  25 SE13      29.89F                  
HOBBS          MOSUNNY   93  52  24 S10G21    29.96F                  


$$